QPF
0.00 0.00 0.00 0.00 0.00 0.00 0.00 0.00 0.00 0.00 0.00 0.00 0.00 0.00 0.00 0.00 0.00 0.00 0.00 0.00 0.00 0.00 0.00 0.00 0.00 0.00 0.00 0.00 0.01 0.01 0.00 0.00 0.02 0.03 0.03 0.03 0.03 0.03 0.03 0.04 0.03 0.03 0.04 0.04 0.04 0.04 0.05 0.06 0.05
0.00 0.00 0.00 0.00 0.00 0.00 0.00 0.00 0.00 0.00 0.00 0.00 0.00 0.00 0.00 0.00 0.00 0.00 0.00 0.00 0.00 0.00 0.00 0.00 0.00 0.00 0.00 0.00 0.01 0.01 0.01 0.00 0.01 0.02 0.02 0.02 0.02 0.02 0.03 0.03 0.02 0.02 0.03 0.04 0.04 0.04 0.05 0.06 0.04
0.00 0.00 0.00 0.00 0.00 0.00 0.00 0.00 0.00 0.00 0.00 0.00 0.00 0.00 0.00 0.00 0.00 0.00 0.00 0.00 0.00 0.00 0.00 0.00 0.00 0.00 0.00 0.00 0.01 0.01 0.01 0.00 0.00 0.01 0.02 0.02 0.03 0.03 0.02 0.02 0.02 0.02 0.03 0.03 0.03 0.03 0.03 0.05 0.04
0.00 0.00 0.00 0.00 0.00 0.00 0.00 0.00 0.00 0.00 0.00 0.00 0.00 0.00 0.00 0.00 0.00 0.00 0.00 0.00 0.00 0.00 0.00 0.00 0.00 0.00 0.00 0.00 0.01 0.01 0.01 0.01 0.00 0.01 0.01 0.02 0.03 0.03 0.03 0.02 0.01 0.02 0.02 0.02 0.03 0.03 0.03 0.03 0.04
0.00 0.00 0.00 0.00 0.00 0.00 0.00 0.00 0.00 0.00 0.00 0.00 0.00 0.00 0.00 0.00 0.00 0.00 0.00 0.00 0.00 0.00 0.00 0.00 0.00 0.00 0.00 0.00 0.01 0.01 0.01 0.01 0.01 0.01 0.01 0.02 0.02 0.03 0.04 0.03 0.02 0.01 0.01 0.02 0.03 0.03 0.03 0.03 0.04
0.00 0.00 0.00 0.00 0.00 0.00 0.00 0.00 0.00 0.00 0.00 0.00 0.00 0.00 0.00 0.00 0.00 0.00 0.00 0.00 0.00 0.00 0.00 0.00 0.00 0.01 0.01 0.01 0.01 0.01 0.01 0.01 0.01 0.01 0.01 0.02 0.02 0.02 0.02 0.03 0.04 0.03 0.02 0.02 0.02 0.03 0.03 0.03 0.04
0.00 0.00 0.00 0.00 0.00 0.00 0.00 0.00 0.00 0.00 0.00 0.00 0.00 0.00 0.00 0.00 0.00 0.00 0.00 0.00 0.00 0.00 0.00 0.00 0.00 0.00 0.00 0.01 0.01 0.01 0.01 0.01 0.01 0.01 0.01 0.01 0.01 0.01 0.02 0.02 0.03 0.04 0.03 0.02 0.02 0.02 0.03 0.03 0.03
0.00 0.00 0.00 0.00 0.00 0.00 0.00 0.00 0.00 0.00 0.00 0.00 0.00 0.00 0.00 0.00 0.00 0.00 0.00 0.00 0.00 0.00 0.00 0.00 0.00 0.00 0.00 0.00 0.00 0.01 0.01 0.01 0.01 0.02 0.02 0.02 0.02 0.01 0.02 0.02 0.02 0.03 0.03 0.02 0.02 0.02 0.03 0.04 0.04
0.00 0.00 0.00 0.00 0.00 0.00 0.00 0.00 0.00 0.00 0.00 0.00 0.00 0.00 0.00 0.00 0.00 0.00 0.00 0.00 0.00 0.00 0.00 0.00 0.00 0.00 0.00 0.00 0.00 0.00 0.00 0.01 0.01 0.02 0.02 0.02 0.02 0.02 0.01 0.01 0.02 0.03 0.03 0.02 0.02 0.02 0.02 0.03 0.04
0.00 0.00 0.00 0.00 0.00 0.00 0.00 0.00 0.00 0.00 0.00 0.00 0.00 0.00 0.00 0.00 0.00 0.00 0.00 0.00 0.00 0.00 0.00 0.00 0.00 0.00 0.00 0.00 0.00 0.00 0.00 0.00 0.00 0.01 0.01 0.02 0.02 0.01 0.01 0.01 0.01 0.02 0.03 0.03 0.02 0.02 0.02 0.02 0.02
0.00 0.00 0.00 0.00 0.00 0.00 0.00 0.00 0.00 0.00 0.00 0.00 0.00 0.00 0.00 0.00 0.00 0.00 0.00 0.00 0.00 0.00 0.00 0.00 0.00 0.00 0.00 0.00 0.00 0.00 0.00 0.00 0.00 0.00 0.01 0.01 0.01 0.01 0.01 0.01 0.01 0.02 0.02 0.03 0.03 0.03 0.03 0.02 0.02
0.00 0.00 0.00 0.00 0.00 0.00 0.00 0.00 0.00 0.00 0.00 0.00 0.00 0.00 0.00 0.00 0.00 0.00 0.00 0.00 0.00 0.00 0.00 0.00 0.00 0.00 0.00 0.00 0.00 0.00 0.00 0.00 0.00 0.00 0.01 0.01 0.01 0.01 0.01 0.01 0.01 0.02 0.02 0.03 0.03 0.04 0.03 0.02 0.01
0.00 0.00 0.00 0.00 0.00 0.00 0.00 0.00 0.00 0.00 0.00 0.00 0.00 0.00 0.00 0.00 0.00 0.00 0.00 0.00 0.00 0.00 0.00 0.00 0.00 0.00 0.00 0.00 0.00 0.00 0.00 0.00 0.00 0.00 0.00 0.01 0.01 0.01 0.01 0.01 0.01 0.01 0.02 0.03 0.04 0.05 0.04 0.03 0.02
0.00 0.00 0.00 0.00 0.00 0.00 0.00 0.00 0.00 0.00 0.00 0.00 0.00 0.00 0.00 0.00 0.00 0.00 0.00 0.00 0.00 0.00 0.00 0.00 0.00 0.00 0.00 0.00 0.00 0.00 0.00 0.00 0.00 0.00 0.00 0.00 0.00 0.01 0.01 0.01 0.01 0.02 0.02 0.02 0.03 0.04 0.04 0.04 0.03
0.00 0.00 0.00 0.00 0.00 0.00 0.00 0.00 0.00 0.00 0.00 0.00 0.00 0.00 0.00 0.00 0.00 0.00 0.00 0.00 0.00 0.00 0.00 0.00 0.00 0.00 0.00 0.00 0.00 0.00 0.00 0.00 0.00 0.00 0.00 0.00 0.00 0.00 0.01 0.01 0.01 0.03 0.03 0.03 0.03 0.03 0.04 0.04 0.03
0.00 0.00 0.00 0.00 0.00 0.00 0.00 0.00 0.00 0.00 0.00 0.00 0.00 0.00 0.00 0.00 0.00 0.00 0.00 0.00 0.00 0.00 0.00 0.00 0.00 0.00 0.00 0.00 0.00 0.00 0.00 0.00 0.00 0.00 0.00 0.00 0.00 0.00 0.01 0.01 0.01 0.02 0.04 0.05 0.04 0.03 0.04 0.05 0.05
0.00 0.00 0.00 0.00 0.00 0.00 0.00 0.00 0.00 0.00 0.00 0.00 0.00 0.00 0.00 0.00 0.00 0.00 0.00 0.00 0.00 0.00 0.00 0.00 0.00 0.00 0.00 0.00 0.00 0.00 0.00 0.00 0.01 0.01 0.01 0.01 0.01 0.01 0.01 0.01 0.01 0.02 0.04 0.06 0.06 0.06 0.05 0.05 0.05
0.00 0.00 0.00 0.00 0.00 0.00 0.00 0.00 0.00 0.00 0.00 0.00 0.00 0.00 0.00 0.00 0.00 0.00 0.00 0.00 0.00 0.00 0.00 0.00 0.00 0.00 0.00 0.00 0.00 0.01 0.01 0.00 0.00 0.01 0.01 0.01 0.01 0.01 0.01 0.01 0.01 0.02 0.02 0.04 0.05 0.05 0.05 0.05 0.05
0.00 0.00 0.00 0.00 0.00 0.00 0.00 0.00 0.00 0.00 0.00 0.00 0.00 0.00 0.00 0.00 0.00 0.00 0.00 0.00 0.00 0.00 0.00 0.00 0.00 0.00 0.00 0.01 0.01 0.01 0.01 0.01 0.00 0.00 0.00 0.00 0.00 0.01 0.02 0.01 0.01 0.01 0.01 0.01 0.02 0.03 0.03 0.03 0.04
0.00 0.00 0.00 0.00 0.00 0.00 0.00 0.00 0.00 0.00 0.00 0.00 0.00 0.00 0.00 0.00 0.00 0.00 0.00 0.00 0.00 0.00 0.00 0.00 0.00 0.00 0.00 0.00 0.00 0.01 0.01 0.01 0.00 0.00 0.00 0.00 0.00 0.00 0.01 0.01 0.01 0.01 0.01 0.01 0.02 0.02 0.03 0.03 0.04
0.00 0.00 0.00 0.00 0.00 0.00 0.00 0.00 0.00 0.00 0.00 0.00 0.00 0.00 0.00 0.00 0.00 0.00 0.00 0.00 0.00 0.00 0.00 0.00 0.00 0.00 0.00 0.00 0.00 0.00 0.00 0.01 0.00 0.01 0.00 0.00 0.00 0.00 0.00 0.00 0.00 0.00 0.01 0.01 0.01 0.02 0.03 0.04 0.04
0.00 0.00 0.00 0.00 0.00 0.00 0.00 0.00 0.00 0.00 0.00 0.00 0.00 0.00 0.00 0.00 0.00 0.00 0.00 0.00 0.00 0.00 0.00 0.00 0.00 0.00 0.00 0.00 0.00 0.00 0.00 0.00 0.00 0.01 0.01 0.01 0.00 0.00 0.00 0.00 0.00 0.00 0.01 0.01 0.01 0.02 0.02 0.03 0.04
0.00 0.00 0.00 0.00 0.00 0.00 0.00 0.00 0.00 0.00 0.00 0.00 0.00 0.00 0.00 0.00 0.00 0.00 0.00 0.00 0.00 0.00 0.00 0.00 0.00 0.00 0.00 0.00 0.00 0.00 0.00 0.00 0.00 0.00 0.00 0.01 0.01 0.00 0.01 0.01 0.01 0.01 0.01 0.01 0.01 0.02 0.03 0.04 0.04
0.00 0.00 0.00 0.00 0.00 0.00 0.00 0.00 0.00 0.00 0.00 0.00 0.00 0.00 0.00 0.00 0.00 0.00 0.00 0.00 0.00 0.00 0.00 0.00 0.00 0.00 0.00 0.00 0.00 0.00 0.00 0.00 0.00 0.00 0.00 0.00 0.00 0.00 0.00 0.01 0.01 0.01 0.01 0.01 0.01 0.02 0.03 0.04 0.05
0.00 0.00 0.00 0.00 0.00 0.00 0.00 0.00 0.00 0.00 0.00 0.00 0.00 0.00 0.00 0.00 0.00 0.00 0.00 0.00 0.00 0.00 0.00 0.00 0.00 0.00 0.00 0.00 0.00 0.00 0.00 0.00 0.00 0.00 0.00 0.00 0.00 0.00 0.00 0.00 0.00 0.00 0.01 0.01 0.02 0.03 0.04 0.04 0.05
0.00 0.01 0.01 0.01 0.00 0.00 0.00 0.00 0.00 0.00 0.00 0.00 0.00 0.00 0.00 0.00 0.00 0.00 0.00 0.00 0.00 0.00 0.00 0.00 0.00 0.00 0.00 0.00 0.00 0.00 0.00 0.00 0.00 0.00 0.00 0.00 0.00 0.00 0.00 0.00 0.00 0.01 0.01 0.01 0.02 0.02 0.04 0.04 0.04
0.00 0.00 0.01 0.01 0.01 0.00 0.00 0.01 0.01 0.01 0.00 0.00 0.00 0.00 0.00 0.00 0.00 0.00 0.00 0.00 0.00 0.00 0.00 0.00 0.00 0.00 0.00 0.00 0.00 0.00 0.00 0.00 0.00 0.00 0.00 0.00 0.00 0.00 0.00 0.01 0.01 0.01 0.01 0.01 0.02 0.02 0.03 0.04 0.05
0.00 0.00 0.00 0.01 0.01 0.00 0.00 0.00 0.01 0.00 0.00 0.00 0.00 0.00 0.00 0.00 0.00 0.00 0.00 0.00 0.00 0.00 0.00 0.00 0.00 0.00 0.00 0.00 0.00 0.00 0.00 0.00 0.00 0.00 0.00 0.00 0.00 0.01 0.01 0.01 0.01 0.01 0.02 0.02 0.03 0.03 0.03 0.03 0.04
0.00 0.00 0.01 0.01 0.01 0.01 0.00 0.00 0.00 0.00 0.00 0.00 0.00 0.00 0.00 0.00 0.00 0.00 0.00 0.00 0.00 0.00 0.00 0.00 0.00 0.00 0.00 0.00 0.00 0.00 0.00 0.00 0.00 0.00 0.00 0.01 0.01 0.01 0.01 0.01 0.01 0.01 0.01 0.02 0.02 0.03 0.03 0.03 0.04
0.01 0.01 0.01 0.02 0.01 0.00 0.00 0.00 0.00 0.00 0.00 0.00 0.00 0.00 0.00 0.00 0.00 0.00 0.00 0.00 0.00 0.00 0.00 0.00 0.00 0.00 0.00 0.00 0.00 0.00 0.00 0.00 0.00 0.00 0.01 0.01 0.01 0.01 0.01 0.02 0.02 0.01 0.02 0.02 0.02 0.02 0.03 0.03 0.03
MSLP
1010.16 1010.62 1011.24 1011.97 1012.74 1013.45 1014.06 1014.52 1014.83 1015.00 1015.11 1015.20 1015.34 1015.56 1015.86 1016.22 1016.59 1016.90 1017.11 1017.18 1017.11 1016.91 1016.64 1016.34 1016.07 1015.85 1015.69 1015.58 1015.49 1015.38 1015.24 1015.03 1014.78 1014.51 1014.23 1013.97 1013.75 1013.56 1013.40 1013.25 1013.09 1012.89 1012.66 1012.40 1012.12 1011.83 1011.55 1011.27 1011.01
1010.44 1010.97 1011.64 1012.38 1013.12 1013.79 1014.34 1014.75 1015.01 1015.16 1015.26 1015.37 1015.53 1015.76 1016.06 1016.41 1016.75 1017.02 1017.19 1017.22 1017.12 1016.92 1016.66 1016.39 1016.16 1015.98 1015.86 1015.78 1015.71 1015.63 1015.49 1015.31 1015.09 1014.83 1014.58 1014.34 1014.12 1013.93 1013.76 1013.58 1013.39 1013.16 1012.90 1012.61 1012.31 1012.00 1011.69 1011.39 1011.10
1010.80 1011.38 1012.06 1012.77 1013.46 1014.05 1014.51 1014.85 1015.06 1015.20 1015.32 1015.46 1015.66 1015.93 1016.26 1016.61 1016.92 1017.16 1017.29 1017.29 1017.18 1016.98 1016.75 1016.51 1016.31 1016.16 1016.07 1016.00 1015.94 1015.86 1015.73 1015.57 1015.37 1015.14 1014.91 1014.69 1014.48 1014.29 1014.09 1013.88 1013.64 1013.38 1013.08 1012.77 1012.45 1012.13 1011.82 1011.52 1011.22
1011.22 1011.83 1012.50 1013.16 1013.75 1014.24 1014.61 1014.86 1015.04 1015.17 1015.31 1015.50 1015.76 1016.08 1016.43 1016.79 1017.09 1017.31 1017.41 1017.40 1017.29 1017.11 1016.90 1016.70 1016.54 1016.41 1016.32 1016.25 1016.18 1016.08 1015.96 1015.80 1015.62 1015.42 1015.22 1015.02 1014.83 1014.62 1014.41 1014.16 1013.88 1013.57 1013.24 1012.91 1012.57 1012.26 1011.96 1011.67 1011.39
1011.66 1012.29 1012.93 1013.52 1014.01 1014.39 1014.66 1014.84 1014.97 1015.11 1015.29 1015.53 1015.84 1016.21 1016.59 1016.95 1017.25 1017.45 1017.54 1017.53 1017.43 1017.28 1017.12 1016.96 1016.82 1016.72 1016.62 1016.53 1016.43 1016.31 1016.17 1016.01 1015.83 1015.66 1015.49 1015.32 1015.14 1014.94 1014.70 1014.42 1014.10 1013.75 1013.39 1013.03 1012.69 1012.38 1012.09 1011.83 1011.58
1012.10 1012.74 1013.34 1013.85 1014.24 1014.52 1014.69 1014.82 1014.93 1015.07 1015.29 1015.58 1015.94 1016.35 1016.75 1017.10 1017.39 1017.57 1017.65 1017.64 1017.57 1017.47 1017.36 1017.25 1017.15 1017.06 1016.96 1016.84 1016.70 1016.53 1016.36 1016.18 1016.01 1015.85 1015.70 1015.56 1015.39 1015.20 1014.95 1014.65 1014.30 1013.92 1013.52 1013.14 1012.80 1012.49 1012.22 1011.99 1011.77
1012.51 1013.15 1013.71 1014.14 1014.45 1014.63 1014.74 1014.82 1014.92 1015.09 1015.35 1015.69 1016.09 1016.51 1016.91 1017.25 1017.50 1017.65 1017.72 1017.73 1017.69 1017.64 1017.59 1017.53 1017.47 1017.39 1017.28 1017.13 1016.94 1016.73 1016.51 1016.30 1016.11 1015.96 1015.83 1015.71 1015.56 1015.37 1015.12 1014.80 1014.43 1014.03 1013.61 1013.22 1012.86 1012.56 1012.31 1012.09 1011.90
1012.89 1013.51 1014.02 1014.39 1014.62 1014.74 1014.80 1014.87 1014.98 1015.18 1015.48 1015.85 1016.28 1016.70 1017.08 1017.38 1017.59 1017.71 1017.76 1017.77 1017.76 1017.76 1017.76 1017.76 1017.74 1017.68 1017.56 1017.38 1017.14 1016.87 1016.60 1016.35 1016.15 1015.99 1015.86 1015.75 1015.61 1015.43 1015.18 1014.85 1014.47 1014.05 1013.62 1013.22 1012.86 1012.56 1012.31 1012.10 1011.92
1013.23 1013.82 1014.28 1014.59 1014.76 1014.84 1014.88 1014.95 1015.09 1015.33 1015.67 1016.08 1016.51 1016.92 1017.26 1017.51 1017.66 1017.73 1017.75 1017.76 1017.77 1017.80 1017.85 1017.90 1017.92 1017.87 1017.74 1017.53 1017.26 1016.94 1016.62 1016.33 1016.10 1015.92 1015.78 1015.67 1015.53 1015.34 1015.09 1014.76 1014.38 1013.95 1013.52 1013.12 1012.76 1012.46 1012.21 1012.00 1011.81
1013.54 1014.09 1014.50 1014.75 1014.87 1014.92 1014.96 1015.05 1015.23 1015.52 1015.90 1016.33 1016.77 1017.16 1017.45 1017.64 1017.73 1017.74 1017.72 1017.70 1017.72 1017.77 1017.86 1017.94 1017.98 1017.94 1017.81 1017.58 1017.27 1016.92 1016.55 1016.23 1015.96 1015.76 1015.60 1015.47 1015.32 1015.12 1014.86 1014.53 1014.14 1013.72 1013.29 1012.90 1012.54 1012.24 1011.98 1011.76 1011.56
1013.83 1014.34 1014.69 1014.89 1014.97 1015.01 1015.06 1015.18 1015.40 1015.73 1016.15 1016.60 1017.03 1017.40 1017.65 1017.78 1017.80 1017.75 1017.69 1017.64 1017.64 1017.70 1017.79 1017.89 1017.94 1017.91 1017.77 1017.52 1017.19 1016.80 1016.41 1016.05 1015.75 1015.51 1015.33 1015.16 1014.99 1014.77 1014.49 1014.15 1013.76 1013.35 1012.94 1012.55 1012.21 1011.90 1011.64 1011.40 1011.17
1014.12 1014.57 1014.86 1015.02 1015.08 1015.12 1015.18 1015.33 1015.59 1015.96 1016.40 1016.86 1017.29 1017.62 1017.83 1017.91 1017.88 1017.78 1017.67 1017.58 1017.56 1017.60 1017.69 1017.78 1017.82 1017.78 1017.63 1017.37 1017.02 1016.61 1016.20 1015.81 1015.48 1015.21 1014.98 1014.78 1014.57 1014.32 1014.02 1013.66 1013.27 1012.86 1012.47 1012.10 1011.76 1011.47 1011.20 1010.94 1010.68
1014.40 1014.81 1015.05 1015.18 1015.23 1015.26 1015.34 1015.52 1015.80 1016.19 1016.65 1017.11 1017.52 1017.83 1018.00 1018.04 1017.97 1017.83 1017.68 1017.56 1017.51 1017.52 1017.58 1017.65 1017.67 1017.60 1017.44 1017.16 1016.79 1016.37 1015.94 1015.53 1015.17 1014.86 1014.59 1014.34 1014.08 1013.79 1013.46 1013.08 1012.68 1012.28 1011.90 1011.54 1011.23 1010.94 1010.66 1010.39 1010.10
1014.69 1015.06 1015.27 1015.38 1015.43 1015.47 1015.57 1015.76 1016.06 1016.45 1016.90 1017.34 1017.73 1018.01 1018.15 1018.16 1018.06 1017.90 1017.73 1017.59 1017.50 1017.48 1017.50 1017.53 1017.51 1017.41 1017.22 1016.92 1016.54 1016.10 1015.65 1015.22 1014.83 1014.48 1014.17 1013.86 1013.55 1013.20 1012.83 1012.43 1012.02 1011.61 1011.24 1010.91 1010.61 1010.33 1010.05 1009.77 1009.45
1014.99 1015.32 1015.53 1015.64 1015.70 1015.77 1015.88 1016.08 1016.37 1016.75 1017.16 1017.56 1017.91 1018.15 1018.27 1018.26 1018.15 1017.98 1017.80 1017.65 1017.54 1017.49 1017.47 1017.44 1017.38 1017.24 1017.00 1016.67 1016.26 1015.81 1015.34 1014.88 1014.45 1014.06 1013.69 1013.33 1012.95 1012.56 1012.14 1011.71 1011.28 1010.87 1010.51 1010.19 1009.91 1009.65 1009.38 1009.09 1008.76
1015.28 1015.61 1015.83 1015.96 1016.06 1016.15 1016.28 1016.48 1016.74 1017.07 1017.43 1017.78 1018.06 1018.26 1018.35 1018.33 1018.22 1018.07 1017.89 1017.74 1017.62 1017.54 1017.47 1017.40 1017.28 1017.08 1016.80 1016.43 1015.98 1015.49 1014.99 1014.49 1014.02 1013.58 1013.15 1012.72 1012.29 1011.84 1011.37 1010.91 1010.46 1010.05 1009.70 1009.40 1009.13 1008.89 1008.65 1008.37 1008.04
1015.58 1015.92 1016.16 1016.34 1016.47 1016.60 1016.74 1016.93 1017.16 1017.42 1017.70 1017.97 1018.19 1018.33 1018.39 1018.36 1018.27 1018.13 1017.97 1017.83 1017.71 1017.60 1017.50 1017.37 1017.19 1016.94 1016.60 1016.17 1015.68 1015.14 1014.59 1014.05 1013.52 1013.01 1012.51 1012.02 1011.53 1011.02 1010.51 1010.02 1009.56 1009.15 1008.81 1008.52 1008.28 1008.07 1007.84 1007.59 1007.28
1015.90 1016.24 1016.52 1016.74 1016.92 1017.08 1017.23 1017.39 1017.57 1017.76 1017.95 1018.12 1018.26 1018.35 1018.38 1018.35 1018.27 1018.15 1018.03 1017.90 1017.78 1017.66 1017.52 1017.34 1017.10 1016.78 1016.38 1015.89 1015.34 1014.75 1014.13 1013.52 1012.92 1012.35 1011.78 1011.22 1010.67 1010.11 1009.57 1009.05 1008.58 1008.17 1007.83 1007.56 1007.34 1007.16 1006.97 1006.75 1006.48
1016.24 1016.58 1016.88 1017.14 1017.36 1017.54 1017.68 1017.81 1017.92 1018.03 1018.13 1018.21 1018.27 1018.31 1018.32 1018.29 1018.23 1018.15 1018.05 1017.95 1017.83 1017.69 1017.52 1017.29 1016.99 1016.60 1016.13 1015.58 1014.96 1014.29 1013.61 1012.92 1012.25 1011.60 1010.96 1010.33 1009.72 1009.12 1008.54 1008.01 1007.52 1007.11 1006.78 1006.52 1006.33 1006.17 1006.02 1005.85 1005.63
1016.61 1016.95 1017.26 1017.53 1017.76 1017.94 1018.06 1018.14 1018.18 1018.19 1018.20 1018.20 1018.20 1018.21 1018.20 1018.19 1018.17 1018.13 1018.06 1017.98 1017.86 1017.70 1017.48 1017.20 1016.83 1016.38 1015.84 1015.21 1014.53 1013.80 1013.04 1012.28 1011.53 1010.79 1010.08 1009.39 1008.72 1008.08 1007.47 1006.91 1006.42 1006.00 1005.67 1005.42 1005.24 1005.10 1004.98 1004.85 1004.68
1017.03 1017.34 1017.64 1017.91 1018.12 1018.25 1018.32 1018.32 1018.28 1018.20 1018.13 1018.07 1018.04 1018.04 1018.05 1018.08 1018.11 1018.11 1018.08 1018.01 1017.88 1017.69 1017.42 1017.07 1016.63 1016.11 1015.50 1014.81 1014.06 1013.27 1012.44 1011.62 1010.79 1009.99 1009.21 1008.45 1007.73 1007.04 1006.40 1005.81 1005.29 1004.86 1004.51 1004.24 1004.06 1003.92 1003.83 1003.73 1003.61
1017.52 1017.79 1018.05 1018.27 1018.42 1018.48 1018.46 1018.37 1018.23 1018.07 1017.93 1017.83 1017.80 1017.82 1017.89 1017.98 1018.07 1018.13 1018.14 1018.07 1017.91 1017.67 1017.34 1016.91 1016.40 1015.80 1015.13 1014.38 1013.58 1012.74 1011.87 1010.98 1010.10 1009.23 1008.39 1007.57 1006.79 1006.05 1005.36 1004.73 1004.17 1003.69 1003.30 1003.00 1002.78 1002.63 1002.53 1002.45 1002.38
1018.07 1018.30 1018.51 1018.65 1018.71 1018.66 1018.52 1018.31 1018.06 1017.81 1017.62 1017.51 1017.50 1017.59 1017.74 1017.92 1018.09 1018.21 1018.25 1018.17 1017.98 1017.67 1017.26 1016.74 1016.14 1015.47 1014.74 1013.95 1013.11 1012.24 1011.34 1010.41 1009.49 1008.57 1007.66 1006.78 1005.94 1005.13 1004.38 1003.68 1003.06 1002.51 1002.06 1001.69 1001.41 1001.21 1001.09 1001.01 1000.97
1018.70 1018.90 1019.04 1019.09 1019.03 1018.85 1018.57 1018.21 1017.84 1017.50 1017.27 1017.17 1017.21 1017.37 1017.62 1017.92 1018.18 1018.36 1018.42 1018.33 1018.08 1017.69 1017.17 1016.56 1015.87 1015.12 1014.33 1013.51 1012.66 1011.78 1010.86 1009.92 1008.97 1008.00 1007.04 1006.10 1005.17 1004.29 1003.45 1002.67 1001.95 1001.31 1000.76 1000.31 999.95 999.68 999.51 999.42 999.40
1019.40 1019.59 1019.68 1019.64 1019.45 1019.12 1018.67 1018.15 1017.65 1017.23 1016.95 1016.86 1016.95 1017.21 1017.57 1017.97 1018.33 1018.57 1018.64 1018.52 1018.21 1017.72 1017.09 1016.37 1015.58 1014.76 1013.93 1013.09 1012.23 1011.35 1010.45 1009.50 1008.53 1007.53 1006.51 1005.49 1004.48 1003.50 1002.55 1001.67 1000.84 1000.10 999.44 998.87 998.42 998.07 997.85 997.73 997.72
1020.15 1020.36 1020.42 1020.31 1020.00 1019.51 1018.89 1018.22 1017.57 1017.05 1016.73 1016.64 1016.78 1017.13 1017.59 1018.10 1018.53 1018.81 1018.89 1018.72 1018.33 1017.74 1017.00 1016.16 1015.28 1014.39 1013.52 1012.67 1011.82 1010.96 1010.06 1009.13 1008.14 1007.10 1006.02 1004.92 1003.81 1002.72 1001.67 1000.67 999.73 998.87 998.10 997.43 996.88 996.46 996.18 996.05 996.04
1020.92 1021.18 1021.25 1021.08 1020.67 1020.05 1019.27 1018.43 1017.65 1017.03 1016.65 1016.55 1016.73 1017.14 1017.68 1018.26 1018.75 1019.06 1019.11 1018.90 1018.42 1017.73 1016.87 1015.93 1014.97 1014.02 1013.12 1012.26 1011.42 1010.57 1009.69 1008.76 1007.75 1006.66 1005.52 1004.33 1003.13 1001.93 1000.77 999.66 998.61 997.65 996.79 996.05 995.43 994.95 994.63 994.48 994.49
1021.66 1022.01 1022.11 1021.92 1021.43 1020.69 1019.78 1018.80 1017.89 1017.17 1016.72 1016.60 1016.79 1017.23 1017.82 1018.44 1018.95 1019.26 1019.29 1019.02 1018.46 1017.67 1016.72 1015.69 1014.66 1013.66 1012.73 1011.86 1011.03 1010.19 1009.32 1008.37 1007.33 1006.19 1004.98 1003.71 1002.41 1001.11 999.85 998.65 997.53 996.50 995.59 994.80 994.14 993.65 993.32 993.17 993.20
1022.29 1022.74 1022.90 1022.71 1022.19 1021.37 1020.35 1019.26 1018.24 1017.43 1016.93 1016.76 1016.94 1017.38 1017.98 1018.60 1019.11 1019.40 1019.39 1019.06 1018.44 1017.57 1016.55 1015.45 1014.37 1013.34 1012.39 1011.51 1010.67 1009.83 1008.94 1007.96 1006.87 1005.67 1004.38 1003.02 1001.64 1000.26 998.93 997.68 996.52 995.48 994.56 993.77 993.13 992.65 992.34 992.21 992.27
1022.76 1023.30 1023.51 1023.35 1022.80 1021.94 1020.86 1019.70 1018.61 1017.74 1017.18 1016.99 1017.13 1017.55 1018.13 1018.73 1019.22 1019.47 1019.41 1019.04 1018.36 1017.45 1016.38 1015.25 1014.13 1013.09 1012.12 1011.23 1010.37 1009.50 1008.57 1007.54 1006.39 1005.11 1003.74 1002.31 1000.85 999.42 998.06 996.79 995.64 994.63 993.75 993.02 992.43 992.00 991.74 991.65 991.73
Thickness
5706 5708 5707 5702 5686 5673 5679 5692 5699 5703 5705 5708 5709 5709 5706 5702 5703 5701 5703 5709 5711 5712 5714 5716 5718 5720 5721 5723 5724 5725 5727 5728 5730 5731 5732 5733 5734 5735 5736 5737 5737 5738 5738 5739 5739 5739 5739 5739 5739
5701 5702 5698 5687 5673 5667 5678 5690 5694 5701 5704 5704 5703 5702 5699 5697 5699 5700 5702 5705 5706 5708 5710 5712 5713 5715 5716 5718 5719 5720 5722 5723 5724 5726 5727 5728 5729 5730 5731 5732 5732 5733 5733 5734 5734 5735 5735 5735 5735
5697 5696 5685 5674 5667 5669 5685 5692 5693 5698 5700 5700 5695 5694 5694 5693 5695 5696 5699 5700 5702 5703 5705 5706 5708 5709 5711 5712 5713 5714 5716 5717 5718 5720 5721 5722 5723 5724 5725 5726 5727 5727 5728 5729 5729 5730 5730 5731 5731
5689 5683 5675 5667 5670 5676 5685 5691 5692 5693 5695 5694 5690 5686 5689 5692 5693 5694 5695 5695 5696 5697 5699 5701 5702 5704 5705 5706 5707 5708 5710 5711 5712 5713 5714 5715 5717 5717 5718 5719 5720 5721 5722 5723 5724 5725 5725 5725 5726
5679 5671 5663 5659 5668 5676 5682 5686 5689 5690 5688 5687 5684 5681 5682 5686 5688 5689 5689 5690 5690 5691 5693 5695 5697 5698 5699 5700 5701 5702 5703 5704 5705 5706 5707 5709 5710 5711 5712 5713 5714 5715 5716 5717 5717 5718 5719 5720 5721
5665 5659 5651 5652 5664 5672 5677 5681 5684 5683 5681 5680 5678 5675 5677 5681 5682 5682 5683 5683 5685 5686 5687 5688 5690 5691 5692 5694 5695 5696 5697 5698 5699 5699 5700 5701 5702 5703 5705 5706 5707 5708 5709 5710 5711 5712 5713 5714 5715
5657 5651 5650 5654 5658 5666 5674 5676 5676 5674 5675 5675 5674 5668 5671 5674 5675 5676 5676 5677 5678 5679 5681 5682 5683 5684 5685 5686 5687 5688 5689 5690 5691 5692 5692 5693 5694 5695 5696 5697 5699 5700 5701 5703 5704 5705 5706 5707 5708
5655 5648 5648 5647 5653 5661 5668 5670 5671 5671 5670 5670 5670 5665 5664 5670 5669 5669 5669 5670 5671 5672 5673 5674 5676 5677 5678 5679 5680 5681 5681 5682 5683 5684 5684 5685 5686 5686 5688 5689 5690 5692 5694 5695 5696 5698 5699 5700 5701
5652 5639 5639 5646 5650 5659 5662 5663 5665 5666 5663 5664 5665 5667 5668 5665 5662 5662 5661 5662 5663 5665 5665 5667 5668 5670 5671 5672 5672 5673 5673 5674 5674 5675 5676 5677 5677 5678 5679 5680 5682 5684 5685 5687 5688 5690 5691 5693 5693
5641 5634 5643 5650 5652 5654 5656 5657 5658 5658 5657 5657 5658 5659 5659 5657 5656 5656 5656 5656 5657 5658 5659 5660 5661 5662 5663 5664 5664 5665 5666 5666 5667 5667 5668 5669 5669 5670 5671 5672 5673 5675 5676 5678 5680 5681 5683 5684 5685
5638 5636 5642 5644 5647 5649 5649 5650 5652 5652 5651 5653 5654 5652 5651 5651 5650 5650 5650 5651 5652 5652 5653 5654 5655 5655 5656 5656 5657 5658 5658 5659 5659 5660 5660 5661 5661 5662 5662 5663 5664 5666 5667 5669 5670 5672 5673 5675 5676
5632 5634 5636 5639 5641 5643 5643 5644 5645 5646 5652 5654 5652 5650 5648 5646 5645 5646 5645 5645 5645 5646 5647 5648 5648 5649 5649 5649 5650 5650 5650 5651 5651 5652 5652 5652 5653 5653 5653 5654 5655 5656 5657 5658 5660 5662 5664 5666 5667
5626 5628 5631 5632 5633 5635 5636 5637 5639 5643 5646 5646 5644 5642 5641 5641 5641 5641 5641 5640 5640 5641 5641 5642 5642 5642 5642 5642 5642 5643 5643 5643 5644 5644 5644 5644 5644 5644 5644 5645 5646 5646 5647 5648 5650 5652 5654 5656 5658
5621 5621 5623 5625 5627 5629 5630 5631 5632 5641 5639 5637 5637 5636 5636 5635 5636 5636 5635 5635 5635 5636 5636 5636 5636 5636 5636 5636 5635 5636 5636 5636 5636 5636 5636 5636 5636 5635 5635 5636 5636 5637 5638 5639 5640 5641 5643 5645 5647
5615 5614 5617 5619 5620 5622 5622 5625 5628 5636 5632 5632 5632 5631 5631 5631 5632 5633 5633 5632 5632 5631 5631 5631 5631 5630 5630 5629 5629 5629 5628 5628 5628 5628 5628 5628 5627 5627 5626 5626 5627 5627 5628 5629 5630 5631 5633 5634 5636
5607 5605 5606 5615 5614 5614 5615 5622 5633 5629 5626 5625 5625 5624 5625 5627 5628 5629 5629 5628 5627 5626 5625 5625 5626 5624 5623 5623 5622 5621 5621 5620 5620 5620 5619 5619 5618 5618 5617 5617 5617 5617 5617 5617 5618 5619 5620 5621 5623
5593 5592 5599 5606 5607 5606 5606 5613 5625 5622 5621 5621 5620 5620 5620 5621 5623 5623 5624 5623 5622 5621 5620 5619 5618 5617 5616 5615 5615 5614 5613 5612 5612 5611 5610 5609 5609 5608 5607 5607 5606 5606 5605 5605 5605 5605 5605 5608 5610
5586 5584 5591 5595 5598 5596 5597 5604 5614 5616 5615 5614 5614 5614 5615 5617 5620 5620 5620 5619 5617 5615 5614 5612 5612 5611 5609 5608 5606 5605 5604 5604 5603 5602 5601 5600 5599 5598 5597 5596 5595 5594 5593 5592 5591 5591 5591 5593 5594
5583 5582 5587 5590 5589 5589 5589 5597 5609 5611 5608 5608 5607 5608 5610 5614 5616 5615 5614 5613 5610 5608 5607 5606 5605 5604 5602 5599 5597 5596 5595 5595 5594 5593 5592 5590 5589 5587 5585 5584 5583 5581 5579 5579 5578 5577 5577 5578 5577
5575 5576 5578 5581 5581 5582 5580 5588 5603 5608 5609 5609 5608 5609 5609 5609 5610 5609 5608 5606 5604 5603 5601 5600 5599 5597 5595 5593 5591 5589 5587 5586 5585 5584 5582 5580 5578 5576 5574 5572 5570 5568 5566 5565 5563 5562 5562 5562 5560
5565 5566 5571 5573 5571 5570 5570 5592 5605 5609 5607 5608 5607 5608 5608 5607 5605 5604 5602 5600 5597 5596 5595 5595 5592 5590 5588 5586 5583 5580 5578 5576 5575 5573 5571 5570 5567 5565 5563 5560 5558 5556 5553 5551 5550 5548 5547 5547 5545
5558 5561 5562 5562 5558 5553 5559 5570 5598 5601 5600 5604 5603 5600 5601 5602 5600 5598 5597 5594 5592 5591 5589 5587 5585 5583 5580 5578 5575 5571 5569 5566 5565 5563 5561 5560 5557 5554 5552 5550 5547 5544 5541 5539 5537 5535 5533 5531 5531
5549 5548 5546 5545 5542 5539 5543 5548 5584 5591 5598 5603 5602 5598 5596 5595 5594 5593 5591 5590 5588 5584 5581 5579 5577 5575 5573 5570 5566 5563 5560 5557 5555 5553 5551 5550 5548 5545 5542 5539 5536 5533 5530 5528 5526 5524 5521 5519 5518
5535 5531 5526 5518 5521 5535 5542 5541 5572 5578 5594 5601 5600 5595 5591 5588 5587 5586 5584 5582 5579 5576 5573 5571 5568 5566 5564 5561 5557 5554 5550 5548 5545 5543 5541 5540 5538 5535 5532 5528 5525 5522 5519 5517 5515 5513 5510 5508 5507
5529 5522 5517 5522 5512 5528 5531 5533 5562 5584 5586 5589 5591 5588 5583 5580 5578 5577 5575 5573 5570 5567 5565 5562 5560 5557 5555 5551 5548 5545 5541 5538 5535 5533 5531 5529 5527 5525 5522 5518 5515 5512 5509 5507 5505 5502 5500 5499 5497
5517 5523 5518 5523 5523 5526 5520 5526 5559 5574 5575 5576 5577 5577 5575 5572 5570 5569 5568 5565 5562 5559 5556 5554 5551 5548 5545 5542 5539 5536 5532 5528 5526 5523 5521 5518 5516 5515 5512 5509 5505 5502 5500 5497 5494 5492 5490 5488 5487
5506 5504 5508 5494 5488 5506 5518 5523 5545 5567 5567 5569 5570 5569 5567 5565 5562 5560 5558 5556 5553 5551 5548 5545 5542 5539 5536 5533 5529 5526 5523 5519 5516 5514 5511 5508 5506 5505 5502 5499 5496 5493 5490 5486 5483 5481 5480 5478 5477
5502 5493 5487 5489 5498 5514 5521 5520 5542 5561 5563 5562 5559 5557 5556 5555 5553 5551 5549 5547 5544 5541 5538 5535 5532 5529 5526 5522 5519 5517 5513 5510 5507 5504 5502 5499 5497 5495 5492 5490 5487 5484 5480 5477 5474 5472 5470 5469 5469
5483 5485 5484 5477 5481 5493 5507 5531 5543 5546 5551 5548 5546 5545 5544 5543 5542 5540 5538 5536 5533 5530 5527 5524 5522 5519 5516 5513 5509 5506 5503 5500 5497 5494 5492 5490 5488 5485 5483 5480 5477 5474 5471 5468 5465 5463 5461 5460 5460
5477 5477 5474 5483 5471 5462 5476 5513 5540 5533 5533 5533 5533 5534 5534 5533 5530 5528 5526 5524 5522 5519 5517 5514 5511 5508 5506 5503 5499 5496 5493 5489 5487 5484 5482 5480 5478 5475 5473 5470 5467 5465 5462 5459 5456 5454 5453 5452 5452